Regional Weather Roundup
Issued by NWS

Home | Current Version | Previous Version | Text Only | Print | Product List | Glossary Off
Versions: 1 2 3 4 5 6 7 8 9 10 11 12 13 14 15 16 17 18 19 20 21 22 23 24 25 26 27 28 29 30 31 32 33 34 35 36 37 38 39 40 41 42 43 44 45 46 47 48 49 50

000
ASUS43 KMPX 300510
RWRMN
WEATHER ROUNDUP FOR MINNESOTA
NATIONAL WEATHER SERVICE TWIN CITIES/CHANHASSEN MN
1200 AM CDT SAT APR 30 2016


NOTE: "FAIR" INDICATES FEW OR NO CLOUDS BELOW 12,000 FEET WITH NO
SIGNIFICANT WEATHER AND/OR OBSTRUCTIONS TO VISIBILITY. N/A MEANS
CURRENT SKY AND/OR WEATHER CONDITIONS ARE NOT AVAILABLE.

MNZ060>063-068>070-300600-
   Twin Cities Metro

CITY           SKY/WX    TMP DP  RH WIND       PRES   REMARKS
TWIN CITIES    MOCLDY    50  39  66 E8        30.14R
ST PAUL        CLOUDY    50  41  71 SE3       30.14R
CRYSTAL        PTCLDY    51  36  56 E8        30.12R
BLAINE         CLEAR     50  36  57 E7        30.13R
EDEN PRAIRIE   CLEAR     48  39  71 E5        30.12R
SOUTH ST PAUL  CLOUDY    49  40  71 CALM      30.14R
LAKE ELMO      CLOUDY    50  36  57 E5        30.15R
$$
MNZ001>005-007-008-013>017-022>024-027-028-300600-
   Northwest Minnesota

CITY           SKY/WX    TMP DP  RH WIND       PRES   REMARKS
BEMIDJI        CLEAR     43  31  63 E8        30.18S
HALLOCK        CLEAR     45  30  57 E5        30.21R
ROSEAU         CLEAR     41  34  75 NE6       30.22S
WARROAD        PTCLDY    46  34  61 E13       30.23S
THIEF RVR FALL CLEAR     46  30  53 NE10      30.20S
CROOKSTON      CLEAR     46  34  61 E9        30.18F
FOSSTON        CLEAR     45  30  57 E10       30.17F
DETROIT LAKES  CLEAR     50  34  53 CALM      30.14S
MOORHEAD       CLEAR     46  36  66 NE8       30.13S
PARK RAPIDS    CLEAR     50  31  48 E10       30.14S
MAHNOMEN       FAIR      48  32  54 NE14      30.14S
$$
MNZ006-009>011-018-025>026-300600-
   North Central Minnesota

CITY           SKY/WX    TMP DP  RH WIND       PRES   REMARKS
BAUDETTE       CLEAR     42  29  59 E9        30.23S
FLAG ISLAND    CLEAR     46  30  53 NE8       30.24R
INTL FALLS     PTCLDY    38  30  73 SE5       30.25R
WASKISH        CLEAR     45  34  65 E8        30.21S
BIG FORK       CLEAR     43  30  61 E5        30.23R
LONGVILLE      CLEAR     45  30  57 E6        30.18S
GRAND RAPIDS   CLEAR     43  27  52 E3        30.21F
CRANE LAKE     CLEAR     28  27  93 CALM      30.28S
ORR            CLEAR     39  28  65 CALM      30.22F
COOK           CLEAR     34  28  80 CALM      30.23F
WALKER         FAIR      47  35  62 E9        30.17S
$$
MNZ012-019>021-037-300600-
   Northeast Minnesota

CITY           SKY/WX    TMP DP  RH WIND       PRES   REMARKS
DULUTH         CLEAR     37  28  70 NE8       30.19F
ELY            CLEAR     39  30  70 NE6       30.24F
HIBBING        CLEAR     31  28  89 CALM      30.21F
EVELETH        CLEAR     32  30  93 CALM      30.23F
DULUTH HARBOR  CLEAR     37  36  93 E8        30.22F
TWO HARBORS    CLEAR     39  30  70 N6        30.20F
SILVER BAY     PTCLDY    32  27  80 CALM      30.21F
GRAND MARAIS     N/A     45  31  58 NE7       30.25R
G MARAIS ARPRT CLOUDY    39  28  65 NE8       30.24S
$$
MNZ029>031-032-039>041-046>048-054>057-064-300600-
   West Central Minnesota

CITY           SKY/WX    TMP DP  RH WIND       PRES   REMARKS
FERGUS FALLS   CLEAR     48  36  61 E5        30.10S
WHEATON        CLOUDY    43  39  87 CALM      30.12S
MORRIS         CLEAR     46  36  66 E7        30.09F
ALEXANDRIA     CLEAR     45  32  60 E8        30.12S
ELBOW LAKE     FAIR      47  39  73 NE5       30.11S
WADENA         CLEAR     46  32  57 E7        30.13R
GLENWOOD       CLEAR     45  34  65 E9        30.11S
APPLETON       CLEAR     39  37  93 E3        30.09S
BENSON         CLEAR     43  36  75 E5        30.10S
ORTONVILLE     CLEAR     45  39  81 CALM      30.09S
MADISON        CLEAR     43  37  81 CALM      30.09S
WILLMAR        FAIR      45  37  76 NE7       30.11S
$$
MNZ033>034-036-042>043-049>051-058-059-300600-
   Central Minnesota

CITY           SKY/WX    TMP DP  RH WIND       PRES   REMARKS
ST CLOUD       CLEAR     48  32  53 E8        30.13R
SAUK CENTRE    FAIR      47  33  58 E9        30.12S
PAYNESVILLE    CLEAR     48  33  57 E9        30.11F
AITKIN         CLEAR     43  27  52 E6        30.17R
PINE RIVER     CLEAR     45  32  61 E6        30.20R
BRAINERD       CLEAR     45  30  55 E8        30.16R
STAPLES        CLEAR     46  30  53 E6        30.14S
LONG PRAIRIE   FAIR      43  32  65 NE7       30.13S
LITTLE FALLS   CLEAR     46  32  57 E7        30.14S
LITCHFIELD     CLEAR     48  36  61 E8        30.11S
BUFFALO        CLEAR     49  33  54 NE13      30.13R
MAPLE LAKE     CLEAR     49  36  61 NE9       30.13S
HUTCHINSON     CLEAR     46  38  74 NE6       30.12R
$$
MNZ037-044-045-052-053-300600-
   East Central Minnesota

CITY           SKY/WX    TMP DP  RH WIND       PRES   REMARKS
PRINCETON      CLEAR     48  34  57 NE8       30.15R
MORA           CLEAR     43  32  65 NE5       30.18S
CAMBRIDGE      CLEAR     48  34  57 NE5       30.13S
RUSH CITY      CLEAR     45  32  60 NE8       30.16S
MOOSE LAKE     CLEAR     37  30  75 CALM      30.18R
HINCKLEY       FAIR      41  32  70 NE6       30.18R
CLOQUET        CLEAR     39  28  65 NE8       30.18F
MCGREGOR       CLEAR     43  32  65 NE5       30.19R
$$
MNZ071>073-080-081-089-090-097-098-300600-
   Southwest Minnesota

CITY           SKY/WX    TMP DP  RH WIND       PRES   REMARKS
MONTEVIDEO     CLEAR     41  37  87 CALM      30.11S
GRANITE FALLS  CLEAR     45  40  82 NE3       30.10S
CANBY          CLEAR     45  43  92 CALM      30.10R
MARSHALL       PTCLDY    45  38  76 SE12      30.09R
REDWOOD FALLS  CLOUDY    44  37  76 SE7       30.09R
OLIVIA         CLOUDY    43  36  75 E3        30.09R
PIPESTONE      CLOUDY    45  39  81 E9        30.06S
WINDOM         PTCLDY    43  37  81 CALM      30.07F
WORTHINGTON    PTCLDY    41  39  93 E7        30.06F
JACKSON        PTCLDY    41  36  81 E6        30.06F
TRACY          PTCLDY    45  41  88 SE6       30.09S
SLAYTON        MOCLDY    44  41  91 E7        30.08F
$$
MNZ065>067-074>077-082>085-091>093-300600-
   South Central Minnesota

CITY           SKY/WX    TMP DP  RH WIND       PRES   REMARKS
MANKATO        CLOUDY    46  37  71 E7        30.09F
NEW ULM        CLEAR     43  39  87 CALM      30.09S
ST JAMES       PTCLDY    37  36  93 NE5       30.09F
FAIRMONT       CLOUDY    43  28  56 NE8       30.06F
GLENCOE        CLEAR     45  41  87 E3        30.11R
FARIBAULT      CLOUDY    45  39  81 E5        30.12R
OWATONNA       PTCLDY    43  37  81 E5        30.10F
WASECA         PTCLDY    41  37  87 E6        30.10F
ALBERT LEA     CLOUDY    45  39  81 NE3       30.08F
$$
MNZ078>079-086>088-094>096-300600-
   Southeast Minnesota

CITY           SKY/WX    TMP DP  RH WIND       PRES   REMARKS
ROCHESTER      CLOUDY    43  39  86 NE6       30.10R
RED WING       CLOUDY    43  39  87 CALM      30.12R
STANTON        PTCLDY    43  38  83 CALM      30.10S
DODGE CENTER   CLOUDY    43  39  87 NE6       30.10F
WINONA         CLOUDY    43  41  93 NW3       30.12R
AUSTIN         CLOUDY    45  39  81 NE5       30.08F
PRESTON        CLOUDY    41  37  84 NE3       30.09F
$$
ABBREVIATIONS USED IN REMARKS
   TC - TEMPERATURES IN CELSIUS
  WCI - WIND CHILL INDEX
   HX - HEAT INDEX
  VSB - VISIBILITY
$$




USA.gov is the U.S. government's official web portal to all federal, state and local government web resources and services.